Home   Weather   Brühl (Rhineland)   Past weeks

Flag for Germany Past Weather in Brühl (Rhineland), North Rhine-Westphalia, Germany — Yesterday and Last 2 Weeks

Now
36 °F

Passing clouds.


Feels Like: 32 °F
Forecast: 25 / 39 °F
Wind: 5 mph from Southeast

Location: Noervenich

Current Time: Dec 4, 2016 at 3:31:40 pm

Latest Report: Dec 4, 2016 at 2:00 pm


Visibility: 16 mi

Pressure: 30.34 "Hg

Humidity: 72%

Dew Point: 28 °F

Location of Brühl (Rhineland)Location

Past Weather in Brühl (Rhineland) — Graph

°F

Brühl (Rhineland) Temperature Yesterday

Maximum temperature yesterday: 35 °F (at 12:00 am)
Minimum temperature yesterday: 28 °F (at 9:00 pm)
Average temperature yesterday: 30 °F

High & Low Weather Summary for the Past Weeks

 TemperatureHumidityPressure
High56 °F (Nov 20, 3:00 pm)99% (Nov 23, 8:00 am)30.59 "Hg (Nov 23, 8:00 am)
Low19 °F (Nov 30, 6:00 am)43% (Nov 30, 2:00 pm)29.32 "Hg (Nov 20, 12:00 pm)
Average41 °F84%30.13 "Hg
* Reported Nov 19 2:00 pm — Dec 4 2:00 pm, Brühl (Rhineland), Weather by CustomWeather, © 2016

Note: Actual official high and low records may vary slightly from our data, if they occured in-between our weather recording intervals... More about our weather records

Advertising

Brühl (Rhineland) Weather History for the Previous 24 Hours

Scroll right to see more
 ConditionsComfort  
Time TempWeatherWind HumidityBarometerVisibility
2:00 pm
Sun, Dec 4
36 °FPassing clouds.5 mph72%30.34 "Hg16 mi
12:00 pm32 °FPassing clouds.5 mph84%30.36 "Hg16 mi
11:00 am29 °FPassing clouds.3 mph91%30.37 "Hg12 mi
10:00 amN/APassing clouds.3 mphN/AN/A2 mi
9:00 am26 °FPassing clouds.2 mph96%30.37 "Hg9 mi
8:00 am26 °FPassing clouds.N/A96%30.35 "Hg7 mi
6:00 am25 °FFog.N/A96%30.34 "Hg4 mi
5:00 am25 °FFog.N/A96%30.35 "Hg1 mi
3:00 am27 °FFog.2 mph96%30.36 "Hg1 mi
2:00 am27 °FFog.2 mph97%30.36 "Hg0 mi
12:00 am29 °FFog.2 mph97%30.35 "Hg1 mi
11:00 pm
Sat, Dec 3
28 °FFog.2 mph97%30.35 "Hg1 mi
9:00 pm28 °FFog.2 mph96%30.34 "Hg0 mi
8:00 pm28 °FFog.2 mph97%30.35 "Hg0 mi
6:00 pm29 °FFog.No wind98%30.34 "Hg0 mi
5:00 pm30 °FFog.N/A97%30.33 "Hg0 mi
3:00 pm35 °FFog.N/A98%30.32 "Hg2 mi
Weather by CustomWeather, © 2016

See weather overviewHow to use our weather pages